Location: Dammartin
(48.9032°N, 1.6195°E)
Time: 12:17:49
(UTC+00:00)

YUBILEINY - Pass Details

Date: 10 December 2023
Orbit: 1479 x 1508 km, 82.5° (Epoch: 02 March)

Event Time Altitude Azimuth Distance (km) Brightness Sun altitude
Rises 19:14:19 0° 350° (N) 4,628 ? -31.4°
Reaches altitude 10° 19:17:15 10° 353° (N) 3,641 ? -31.8°
Enters shadow 19:24:42 62° 32° (NNE) 1,643 ? -33.1°
